Location: Montreal
(45.5000°N, 73.5833°W)
Time: 04:56:20
(UTC-05:00)

Vanguard 2 - Visible Passes

Search period start: 19 February 2018 00:00
Search period end: 01 March 2018 00:00
Orbit: 553 x 2939 km, 32.9° (Epoch: 18 February)

Date Brightness Start Highest point End Pass type
(mag) Time Alt. Az. Time Alt. Az. Time Alt. Az.
19 Feb 9.2 19:47:41 10° WSW 19:53:49 26° S 19:54:33 25° S visible
20 Feb 9.9 17:55:02 10° SW 18:03:31 29° S 18:09:11 10° ESE visible
20 Feb 9.3 20:05:39 10° WSW 20:11:36 25° SSW 20:11:45 25° SSW visible
21 Feb 9.8 18:12:40 10° WSW 18:21:24 32° S 18:27:09 10° ESE visible
21 Feb 9.5 20:23:46 10° WSW 20:28:58 22° SSW 20:28:58 22° SSW visible
22 Feb 9.7 18:30:28 10° WSW 18:39:17 33° S 18:44:44 11° SE visible
22 Feb 9.8 20:42:03 10° WSW 20:46:11 19° SW 20:46:11 19° SW visible
23 Feb 9.7 18:48:25 10° WSW 18:57:06 33° S 19:01:58 14° SE visible
23 Feb 10.1 21:00:38 10° WSW 21:03:24 15° SW 21:03:24 15° SW visible
24 Feb 9.6 19:06:28 10° WSW 19:14:53 31° SSW 19:19:11 16° SE visible
24 Feb 10.4 21:19:57 10° SW 21:20:37 11° SW 21:20:37 11° SW visible
25 Feb 9.7 19:24:39 10° WSW 19:32:34 28° SSW 19:36:25 17° SSE visible
26 Feb 9.8 19:42:58 10° WSW 19:50:11 24° SSW 19:53:40 16° S visible
27 Feb 10.0 20:01:30 10° WSW 20:07:42 19° SW 20:10:58 14° S visible
28 Feb 10.2 18:06:35 10° WSW 18:17:39 36° SSW 18:24:47 10° SE visible
28 Feb 10.3 20:20:30 10° WSW 20:25:06 15° SW 20:28:16 11° SSW visible
